Regional Weather Roundup
Issued by NWS

Home | Current Version | Previous Version | Text Only | Print | Product List | Glossary Off
Versions: 1 2 3 4 5 6 7 8 9 10 11 12 13 14 15 16 17 18 19 20 21 22 23 24 25 26 27 28 29 30 31 32 33 34 35 36 37 38 39 40 41 42 43 44 45 46 47 48 49 50

000
ASUS43 KLOT 022008
RWRIL

ILLINOIS REGIONAL WEATHER ROUNDUP
NATIONAL WEATHER SERVICE CHICAGO/ROMEOVILLE IL
300 PM CDT SUN AUG 02 2015

NOTE: "FAIR" INDICATES FEW OR NO CLOUDS BELOW 12,000 FEET WITH NO
SIGNIFICANT WEATHER AND/OR OBSTRUCTIONS TO VISIBILITY.

* THESE STATIONS ARE NOT UNDER NWS QUALITY CONTROL. THEY ALSO MAY NOT
  REPORT WEATHER SUCH AS PRECIPITATION OR FOG.

ILZ001-002-007-009-015-016-024-022100-
NORTHWEST ILLINOIS

CITY           SKY/WX    TMP DP  RH WIND       PRES   REMARKS
MOLINE         MOSUNNY   91  72  53 SW14G23   29.75F HX  98
STERLING*      MOSUNNY   90  73  58 SW10G18   29.72F HX  98
SAVANNA*       MOSUNNY   90  71  54 SW12      29.72F HX  96
$$

ILZ003-004-008-010-011-017-018-022100-
NORTH CENTRAL ILLINOIS

CITY           SKY/WX    TMP DP  RH WIND       PRES   REMARKS
ROCKFORD       MOSUNNY   90  69  50 SW20G26   29.74F HX  94
FREEPORT*      SUNNY     86  71  59 SW21G26   29.74F HX  91
ROCHELLE*      MOSUNNY   86  73  63 SW13G23   29.76F HX  93
DE KALB*       PTSUNNY   87  74  66 SW20      29.77F HX  96
PERU*          MOSUNNY   89  70  51 SW16G24   29.79F HX  94
$$

ILZ005-006-012>014-019>023-022100-
NORTHEAST ILLINOIS

CITY           SKY/WX    TMP DP  RH WIND       PRES   REMARKS
CHICAGO-OHARE  TSTM      78  69  73 SW12G36   29.75S HX  80
CHICAGO-MIDWAY PTSUNNY   89  67  47 SW22G28   29.75F THUNDER HX  92
AURORA         PTSUNNY   89  70  53 SW13      29.77F HX  94
LANSING*       SUNNY     89  64  43 SW22G31   29.77F HX  90
JOLIET*        MOSUNNY   88  71  58 SW10G16   29.78F HX  94
WAUKEGAN       SUNNY     89  67  47 SW20G41   29.68F HX  92
DUPAGE AIRPORT MOSUNNY   78  72  81 SW9       29.76F HX  80
KANKAKEE*      SUNNY     90  72  55 SW22G28   29.82S HX  97
WHEELING       MOSUNNY   87  67  51 SW20G36   29.74S HX  90
MORRIS*        MOSUNNY   89  73  59 SW16G24   29.77F HX  97
ROMEOVILLE*    MOSUNNY   85  68  56 SW12      29.78S HX  88
NORTHERLY ISL    N/A     89  62  40 SW15        N/A  HX  89
$$

LMZ740>746-022100-
SOUTHERN LAKE MICHIGAN

STATION/POSITION SKY/WX   TEMP    WIND        PRES    VSBY  WAVE
                          AIR SEA DIR/SP/G                  HT/PER
                          (F)     (DEG/KT/KT) (MB)    (MI)  (FT/S)
HARRISON CRIB              87     230/ 20/ 26   N/A
BURNHAM HARBOR             88     230/ 14/ 20   N/A
CALUMET HARBOR             90     230/ 12/ 20   N/A
BURNS HARBOR               89     230/ 20     1008.5F
MICHIGAN CITY              85     210/ 22/ 26   N/A
MICHIGAN CITY 6N           83 74  240/ 16/ 21   N/A           4/ 4
ST. JOSEPH                 79 74  250/ 14/ 14   N/A           2/ 3
$$

ILZ025>027-034>036-040-047-049-050-058-095>099-022100-
WEST-CENTRAL ILLINOIS

CITY           SKY/WX    TMP DP  RH WIND       PRES   REMARKS
QUINCY         SUNNY     90  72  55 SW13      29.85F HX  97
GALESBURG*     SUNNY     88  73  60 SW20G25   29.81F HX  96
MACOMB*        SUNNY     88  72  57 SW15      29.85F HX  95
JACKSONVILLE*  MOSUNNY   92  73  54 SW12G18   29.86F HX 100
PITTSFIELD*    SUNNY     90  66  45 SW14G20   29.88F HX  93
$$

ILZ028>032-037-038-041>044-048-051>054-059>061-022100-
CENTRAL ILLINOIS

CITY           SKY/WX    TMP DP  RH WIND       PRES   REMARKS
PONTIAC        SUNNY     90  72  55 SW18G24   29.83S HX  96
BLOOMINGTON    MOSUNNY   89  70  53 SW15G22   29.86F HX  94
DECATUR        MOSUNNY   91  69  48 SW14G23   29.86F HX  96
PEORIA         SUNNY     93  69  45 W18G26    29.82F HX  98
LACON*         SUNNY     89  72  57 SW13G22   29.79F HX  96
LINCOLN*       MOSUNNY   90  73  57 SW9       29.84F HX  99
SPRINGFIELD    SUNNY     92  73  53 SW8G17    29.86F HX 100
TAYLORVILLE    SUNNY     88  72  58 SW13      29.87F HX  94
$$

ILZ033-039-045-046-055>057-062-063-022100-
EAST-CENTRAL ILLINOIS

CITY           SKY/WX    TMP DP  RH WIND       PRES   REMARKS
CHAMPAIGN      PTSUNNY   87  73  62 SW12      29.87F HX  94
DANVILLE*      MOSUNNY   87  71  60 SW15G22   29.85F HX  92
RANTOUL*       MOSUNNY   89  71  55 SW14      29.86F HX  95
MATTOON        PTSUNNY   89  67  47 SW12      29.88F HX  92
PARIS*         CLOUDY    89  72  58 SW13      29.89F HX  96
$$

ILZ079-100>102-022100-
SOUTHWEST ILLINOIS

CITY           SKY/WX    TMP DP  RH WIND       PRES   REMARKS
BELLEVILLE     SUNNY     93  71  49 SW10      29.88F HX 100
CAHOKIA*       MOSUNNY   94  66  39 SW8G16    29.88F HX  97
SPARTA*        MOSUNNY   90  70  52 S8        29.92S HX  95
$$

ILZ064>066-069>071-074>076-080>082-084>086-088>090-092>094-022100-
SOUTH-CENTRAL ILLINOIS

CITY           SKY/WX    TMP DP  RH WIND       PRES   REMARKS
CARBONDALE     MOSUNNY   89  72  56 SW9       29.91F HX  96
CAIRO*         PTSUNNY   88  71  57 S6        29.92F HX  93
EFFINGHAM*     SUNNY     92  61  36 SW10      29.91F HX  92
MARION         PTSUNNY   90  72  55 S9        29.93F HX  96
MT. VERNON     MOSUNNY   93  72  49 S10       29.92F HX 100
CENTRALIA*     SUNNY     91  69  47 SW9       29.91S HX  96
SALEM*         MOSUNNY   90  67  46 S5        29.90F HX  93
METROPOLIS*    SUNNY     89  73  59 S3        29.94F HX  96
$$

ILZ067-068-072-073-078-083-087-091-022100-
SOUTHEAST ILLINOIS

CITY           SKY/WX    TMP DP  RH WIND       PRES   REMARKS
LAWRENCEVILLE  SUNNY     90  69  50 SW10      29.92F HX  94
FLORA*         SUNNY     90  69  49 W6        29.91F HX  94
FAIRFIELD*     SUNNY     89  72  56 SW8       29.91S HX  96
HARRISBURG*    SUNNY     88  71  56 SW8       29.94F HX  94
ROBINSON*      SUNNY     88  70  54 S7        29.91F HX  93
CARMI*         SUNNY     87  68  53 S5        29.92F HX  90
$$

ABBREVIATIONS USED IN REMARKS
   TC - TEMPERATURE IN CELSIUS
  WCI - WIND CHILL INDEX
   HX - HEAT INDEX
  VSB - VISIBILITY
$$




USA.gov is the U.S. government's official web portal to all federal, state and local government web resources and services.